New Philadelphia, OH

6:18 AM EDT on August 24, 2016 (GMT -0400)
Clever

Weather History for KPHD - January, 2014

Change the Weather History Date:

Monday, January 27, 2014

  Actual Average Record
Temperature  
Mean Temperature 20 °F 29 °F  
Max Temperature 41 °F 38 °F 61 °F (1974)
Min Temperature -2 °F 21 °F -3 °F (1966)
Degree Days  
Heating Degree Days 45 36  
Month to date heating degree days 1065 972  
Since 1 July heating degree days 3266 3133  
Cooling Degree Days 0 0  
Month to date cooling degree days 0 0  
Year to date cooling degree days 0 0  
Moisture  
Dew Point 4 °F    
Average Humidity 57    
Maximum Humidity 63    
Minimum Humidity 50    
Precipitation  
Precipitation T in 0.08 in 1.14 in (1962)
Month to date precipitation 1.82 2.25  
Year to date precipitation 1.82 2.25  
Sea Level Pressure  
Sea Level Pressure 29.98 in    
Wind  
Wind Speed 12 mph (West)    
Max Wind Speed 28 mph    
Max Gust Speed 40 mph    
Visibility 8 miles    
Events Snow    
T = Trace of Precipitation, MM = Missing Value Source: NWS Daily Summary

Daily Weather History Graph

Daily Weather History Graph

Search for Another Location

Airport or City:

Trip Planner

Search our weather history database for the weather conditions in past years. The results will help you decide how hot, cold, wet, or windy it might be!

Date:

Astronomy

Jan. 27, 2014 Rise Set
Actual Time 7:39 AM EST 5:37 PM EST
Civil Twilight 7:10 AM EST 6:07 PM EST
Nautical Twilight 6:37 AM EST 6:39 PM EST
Astronomical Twilight 6:05 AM EST 7:12 PM EST
Moon 4:19 AM EST (1/27) 2:22 PM EST (1/27)
Length of Visible Light 10h 56m
Length of Day
9h 58m
Waning Crescent, 15% of the Moon is Illuminated
Jan 27
Waning Crescent
Jan 30
New
Feb 6
First Quarter
Feb 14
Full
Feb 22
Last Quarter

Hourly Weather History & Observations

Time (EST) Temp. Windchill Dew Point Humidity Pressure Visibility Wind Dir Wind Speed Gust Speed Precip Events Conditions
12:53 AM 36.0 °F 29.6 °F 23.0 °F 59% 29.54 in 10.0 mi SSW 8.1 mph - N/A   Overcast
1:53 AM 37.9 °F 31.5 °F 25.0 °F 60% 29.50 in 10.0 mi SSW 9.2 mph 19.6 mph 0.00 in   Overcast
2:53 AM 39.9 °F 32.9 °F 27.0 °F 60% 29.52 in 10.0 mi SW 11.5 mph 20.7 mph N/A   Mostly Cloudy
3:27 AM 34.0 °F 21.8 °F 27.0 °F 75% 29.56 in 4.0 mi NW 23.0 mph 33.4 mph 0.00 in Snow Light Snow
3:53 AM 28.0 °F 15.3 °F 19.0 °F 69% 29.66 in 6.0 mi West 18.4 mph 31.1 mph 0.00 in Snow Light Snow
4:16 AM 27.0 °F 15.6 °F 19.0 °F 72% 29.66 in 2.5 mi West 13.8 mph 25.3 mph 0.00 in Snow Light Snow
4:23 AM 26.1 °F 15.0 °F 19.0 °F 75% 29.66 in 3.0 mi West 12.7 mph 23.0 mph 0.00 in Snow Light Snow
4:53 AM 26.1 °F 14.5 °F 10.9 °F 53% 29.71 in 10.0 mi West 13.8 mph 27.6 mph 0.00 in   Overcast
5:29 AM 21.9 °F 7.8 °F 9.0 °F 58% 29.74 in 2.0 mi WNW 17.3 mph 28.8 mph 0.00 in Snow Light Snow
5:43 AM 19.9 °F 5.7 °F 10.9 °F 68% 29.76 in 1.8 mi WNW 16.1 mph 28.8 mph 0.00 in Snow Light Snow
5:53 AM 19.9 °F 5.2 °F 10.9 °F 68% 29.82 in 2.5 mi West 17.3 mph 25.3 mph 0.00 in Snow Light Snow
6:01 AM 19.0 °F 7.5 °F 9.0 °F 65% 29.78 in 4.0 mi West 10.4 mph 27.6 mph 0.00 in Snow Light Snow
6:53 AM 18.0 °F 3.1 °F 3.0 °F 52% 29.89 in 10.0 mi West 16.1 mph 26.5 mph 0.00 in   Overcast
7:41 AM 14.0 °F -1.4 °F 3.9 °F 64% 29.92 in 8.0 mi West 15.0 mph 23.0 mph 0.00 in   Overcast
7:53 AM 14.0 °F -4.7 °F 3.9 °F 64% 29.97 in 5.0 mi WNW 23.0 mph 29.9 mph 0.00 in Snow Light Snow
8:30 AM 12.9 °F -0.9 °F 3.9 °F 67% 29.96 in 2.5 mi WNW 11.5 mph 25.3 mph 0.00 in Snow Light Snow
8:38 AM 12.9 °F 0.7 °F 3.9 °F 67% 29.97 in 5.0 mi WNW 9.2 mph - 0.00 in   Haze
8:53 AM 12.9 °F -3.4 °F 3.0 °F 65% 30.02 in 10.0 mi WNW 16.1 mph 24.2 mph 0.00 in   Mostly Cloudy
9:53 AM 12.9 °F -2.2 °F 3.0 °F 65% 30.09 in 5.0 mi WNW 13.8 mph 20.7 mph 0.00 in Snow Light Snow
10:53 AM 12.9 °F -0.2 °F 1.9 °F 62% 30.12 in 10.0 mi West 10.4 mph 18.4 mph 0.00 in   Mostly Cloudy
11:04 AM 12.9 °F -0.2 °F 1.0 °F 59% 30.08 in 10.0 mi West 10.4 mph 16.1 mph N/A   Overcast
11:23 AM 12.0 °F -2.0 °F 1.0 °F 61% 30.09 in 10.0 mi WNW 11.5 mph - N/A   Mostly Cloudy
11:53 AM 12.0 °F -3.4 °F 1.9 °F 64% 30.13 in 8.0 mi West 13.8 mph - N/A   Overcast
12:26 PM 12.0 °F -2.0 °F -0.0 °F 59% 30.09 in 10.0 mi West 11.5 mph - 0.00 in   Mostly Cloudy
12:53 PM 10.9 °F -2.6 °F -0.9 °F 59% 30.12 in 10.0 mi West 10.4 mph - 0.00 in   Mostly Cloudy
1:53 PM 12.0 °F -1.3 °F -2.0 °F 53% 30.11 in 10.0 mi WSW 10.4 mph 16.1 mph N/A   Mostly Cloudy
2:53 PM 12.0 °F -2.0 °F -2.9 °F 51% 30.12 in 10.0 mi WSW 11.5 mph - N/A   Mostly Cloudy
3:53 PM 10.9 °F -1.8 °F -2.9 °F 54% 30.15 in 10.0 mi West 9.2 mph 17.3 mph N/A   Mostly Cloudy
4:53 PM 10.0 °F -3.7 °F -6.0 °F 48% 30.18 in 10.0 mi West 10.4 mph 19.6 mph N/A   Partly Cloudy
5:53 PM 8.1 °F -4.3 °F -7.1 °F 50% 30.20 in 10.0 mi WNW 8.1 mph - N/A   Clear
6:53 PM 6.1 °F -6.8 °F -7.1 °F 55% 30.25 in 10.0 mi West 8.1 mph - N/A   Clear
7:53 PM 3.9 °F -11.3 °F -9.0 °F 55% 30.30 in 10.0 mi West 10.4 mph - N/A   Clear
8:53 PM 1.9 °F -12.9 °F -11.0 °F 55% 30.32 in 10.0 mi West 9.2 mph 18.4 mph N/A   Clear
9:53 PM 1.0 °F -12.9 °F -11.9 °F 55% 30.35 in 10.0 mi West 8.1 mph 17.3 mph N/A   Clear
10:53 PM -0.9 °F -15.3 °F -11.9 °F 60% 30.39 in 10.0 mi West 8.1 mph - N/A   Clear
11:53 PM -2.0 °F -13.9 °F -13.0 °F 60% 30.41 in 10.0 mi West 5.8 mph - N/A   Clear